Regional Weather Roundup
Issued by NWS

Home | Current Version | Previous Version | Text Only | Print | Product List | Glossary On
Versions: 1 2 3 4 5 6 7 8 9 10 11 12 13 14 15 16 17 18 19 20 21 22 23 24 25 26 27 28 29 30 31 32 33 34 35 36 37 38 39 40 41 42 43 44 45 46 47 48 49 50
000
ASUS43 KDTX 310710
RWRMI
MICHIGAN HOURLY REGIONAL WEATHER ROUNDUP
NATIONAL WEATHER SERVICE DETROIT/PONTIAC MI
300 AM EDT SAT JUL 31 2021

NOTE: "FAIR" INDICATES FEW OR NO CLOUDS BELOW 12,000 FEET WITH NO
SIGNIFICANT WEATHER AND/OR OBSTRUCTION TO VISIBILITY.

MIZ047>049-052>055-059>063-066>070-074>076-081>083-310800-
SOUTHEAST LOWER MICHIGAN

CITY           SKY/WX    TMP DP  RH WIND       PRES   REMARKS
ADRIAN         PTCLDY    59  57  93 CALM      30.08S
ANN ARBOR      CLEAR     52  51  97 CALM      30.07S
DETROIT CITY   CLEAR     61  51  70 CALM      30.07S
DETROIT        PTCLDY    60  51  72 CALM      30.07F
FLINT          CLEAR     56  54  93 W3        30.07S

CITY           SKY/WX    TMP DP  RH WIND       PRES   REMARKS
JACKSON        CLEAR     58  55  90 CALM      30.07F
LANSING        CLEAR     57  51  80 CALM      30.08S
LAPEER         NOT AVBL
MT. CLEMENS    CLEAR     56  56 100 N5        30.06S
PONTIAC        CLEAR     57  53  86 CALM      30.06S
PORT HOPE        N/A     56  50  80 SW7       30.04F
TRI CITIES     CLEAR     57  52  83 E5        30.07S
MIDLAND        NOT AVBL
$$
MIZ043>046-050>051-056>058-064>065-071>073-077>080-310800-
SOUTHWEST LOWER MICHIGAN

CITY           SKY/WX    TMP DP  RH WIND       PRES   REMARKS
BATTLE CREEK   CLEAR     60  55  83 NW3       30.08S
BENTON HARBOR  CLEAR     55  53  93 CALM      30.08S
HOLLAND        CLEAR     57  50  77 N3        30.09F
GRAND RAPIDS   CLEAR     59  53  80 CALM      30.08F
KALAMAZOO      CLEAR     60  54  80 N3        30.08S
MUSKEGON       CLEAR     54  49  83 SE3       30.08F
$$
MIZ016>042-310800-
NORTHERN LOWER MICHIGAN

CITY           SKY/WX    TMP DP  RH WIND       PRES   REMARKS
ALPENA         MOCLDY    53  48  83 SW5       30.04F
GAYLORD        MOCLDY    54  46  74 W5        30.06F
GRAYLING       CLEAR     49  48  95 W6        30.06S
HOUGHTON LAKE  CLEAR     48  46  93 CALM      30.08S
MANISTEE       CLEAR     50  50 100 E5        30.06F
PELLSTON       MOCLDY    53  51  93 CALM      30.03F
TRAVERSE CITY  PTCLDY    54  49  83 CALM      30.04F
$$
MIZ007>008-015-310800-
EASTERN UPPER MICHIGAN

CITY           SKY/WX    TMP DP  RH WIND       PRES   REMARKS
KINROSS        CLOUDY    55  48  77 CALM      30.03F
S. S. MARIE    CLOUDY    59  48  67 CALM      30.02F
MUNISING         N/A     61  54  77 SW12G20   29.95F
$$
MIZ004>006-011>014-085-310800-
CENTRAL UPPER MICHIGAN

CITY           SKY/WX    TMP DP  RH WIND       PRES   REMARKS
ESCANABA       PTCLDY    61  57  87 SW7       29.99F
MENOMINEE      PTCLDY    62  59  90 VRB5      30.03F
$$
MIZ001>003-009>011-084-310800-
WESTERN UPPER MICHIGAN

CITY           SKY/WX    TMP DP  RH WIND       PRES   REMARKS
IRON MOUNTAIN  PTCLDY    64  57  78 W7        29.99F
HOUGHTON       PTCLDY    69  56  62 W16G23    29.91F
COPPER HARBOR    N/A     66  57  72 SW3       29.89F
IRONWOOD       MOCLDY    64  58  80 SW7       30.00F
$$

ABBREVIATIONS USED IN REMARKS
   TC - TEMPERATURE IN CELSIUS
  WCI - WIND CHILL INDEX
   HX - HEAT INDEX
  VSB - VISIBILITY




USA.gov is the U.S. government's official web portal to all federal, state and local government web resources and services.